Regional Weather Roundup
Issued by NWS

Home | Current Version | Previous Version | Text Only | Print | Product List | Glossary Off
Versions: 1 2 3 4 5 6 7 8 9 10 11 12 13 14 15 16 17 18 19 20 21 22 23 24 25 26 27 28 29 30 31 32 33 34 35 36 37 38 39 40 41 42 43 44 45 46 47 48 49 50

000
ASUS43 KOAX 261110
RWRNE

WEATHER ROUNDUP FOR NEBRASKA
NATIONAL WEATHER SERVICE OMAHA NE
600 AM CDT SAT MAY 26 2018

NOTES: SATELLITE DATA IS BEING USED TO AUGMENT CLOUD COVER ABOVE
       12000 FEET.
       "FAIR" INDICATES FEW OR NO CLOUDS BELOW 12,000 FEET WITH NO
       SIGNIFICANT WEATHER AND/OR OBSTRUCTIONS TO VISIBILITY.


NEZ001>004-019>022-054>056-261200-
NEBRASKA PANHANDLE

CITY           SKY/WX    TMP DP  RH WIND       PRES   REMARKS
SCOTTSBLUFF    CLEAR     58  53  84 E9        29.88F
ALLIANCE       CLEAR     53  52  96 E5        29.89F
CHADRON        CLEAR     50  50 100 CALM      29.87S
GORDON         FAIR      51  48  92 CALM      29.90S
KIMBALL        CLEAR     54  47  77 CALM      29.94S
SIDNEY         CLEAR     53  47  79 SW3       29.93R
$$

NEZ057>060-069>072-079>082-261200-
SOUTHWEST NEBRASKA

CITY           SKY/WX    TMP DP  RH WIND       PRES   REMARKS
NORTH PLATTE   CLEAR     55  53  93 E3        29.87R
IMPERIAL       CLEAR     59  52  77 W5        29.88S
LEXINGTON      CLEAR     60  56  89 NW3       29.85R
MCCOOK         CLEAR     60  56  86 W6        29.85S
OGALLALA       CLEAR     56  54  91 CALM      29.88S
$$

NEZ005>010-023>029-035>040-094-261200-
NORTH CENTRAL NEBRASKA

CITY           SKY/WX    TMP DP  RH WIND       PRES   REMARKS
VALENTINE      CLEAR     57  55  93 W5        29.86R
AINSWORTH      CLEAR     62  59  91 S6        29.86R
BROKEN BOW     CLEAR     59  56  89 CALM      29.85R
O`NEILL        CLEAR     63  60  90 CALM      29.82S
ORD            CLEAR     60  59  96 NW5       29.81S
THEDFORD       CLEAR     57  56  96 W3        29.88F
$$

NEZ041-046>049-061>064-073>077-083>087-261200-
SOUTH CENTRAL NEBRASKA

CITY           SKY/WX    TMP DP  RH WIND       PRES   REMARKS
GRAND ISLAND   CLEAR     64  59  83 W8        29.82R
AURORA         CLEAR     64  62  91 W3        29.81R
HASTINGS       CLEAR     68  59  73 SW3       29.83R
HEBRON         CLEAR     65  63  94 CALM      29.81S
HOLDREGE       PTCLDY    63  58  82 CALM      29.84S
KEARNEY        CLEAR     69  56  62 NW5       29.84R
YORK           CLEAR     63  63 100 SW5       29.80S
$$

NEZ011>018-030>034-042>045-261200-
NORTHEAST NEBRASKA

CITY           SKY/WX    TMP DP  RH WIND       PRES   REMARKS
NORFOLK        CLEAR     62  59  90 CALM      29.79S
ALBION         CLEAR     60  59  97 NW6       29.81S
BLAIR          CLEAR     69  60  72 CALM      29.77S
COLUMBUS       CLEAR     64  59  83 MISG      29.79R
FREMONT        PTCLDY    65  60  83 W3        29.77S
TEKAMAH        CLEAR     64  61  90 CALM      29.75R
WAYNE          CLEAR     57  56  96 CALM      29.79R
$$

NEZ050>053-065>068-078-088>093-261200-
SOUTHEAST NEBRASKA

CITY           SKY/WX    TMP DP  RH WIND       PRES   REMARKS
LINCOLN        CLEAR     66  63  90 S5        29.78S
OMAHA EPPLEY   CLEAR     66  62  87 CALM      29.76R
BEATRICE       CLEAR     70  66  86 SW6       29.80S
FALLS CITY     CLEAR     72  64  76 SW6       29.77S
NEBRASKA CITY  CLEAR     73  65  77 W12       29.78R
PLATTSMOUTH    CLEAR     71  64  80 CALM      29.77R
$$

NEZ044-045-051>053-067-261200-
OMAHA AREA

CITY           SKY/WX    TMP DP  RH WIND       PRES   REMARKS
OMAHA EPPLEY   CLEAR     66  62  87 CALM      29.76R
BLAIR          CLEAR     69  60  72 CALM      29.77S
FREMONT        PTCLDY    65  60  83 W3        29.77S
MILLARD        PTCLDY    66  62  86 CALM      29.77R
OFFUTT AFB     CLEAR     63  61  94 CALM      29.75R
PLATTSMOUTH    CLEAR     71  64  80 CALM      29.77R
WAHOO          FAIR      62  56  80 SE3       29.77S
$$



USA.gov is the U.S. government's official web portal to all federal, state and local government web resources and services.